Weather History for Seattle Boeing, WA

Change the Weather History Date:

Friday, February 1, 2013

  Actual Average Record
Temperature  
Mean Temperature 48 °F -  
Max Temperature 51 °F 47 °F 63 °F (1962)
Min Temperature 44 °F 35 °F 1 °F (1950)
Degree Days  
Heating Degree Days 18    
Moisture  
Dew Point 43 °F    
Average Humidity 83    
Maximum Humidity 93    
Minimum Humidity 71    
Precipitation  
Precipitation 0.00 in - - ()
Sea Level Pressure  
Sea Level Pressure 30.38 in    
Wind  
Wind Speed 2 mph (North)    
Max Wind Speed 7 mph    
Max Gust Speed -    
Visibility 9 miles    
Events      
Averages and records for this station are not official NWS values.
T = Trace of Precipitation, MM = Missing Value Source: NWS Daily Summary

Daily Weather History Graph

Daily Weather History Graph

Search for Another Location

Airport:

Trip Planner

Search our weather history database for the weather conditions in past years. The results will help you decide how hot, cold, wet, or windy it might be!

Date:

Astronomy

Feb. 01, 2013 Rise Set
Actual Time 7:35 AM PST 5:11 PM PST
Civil Twilight 7:02 AM PST 5:44 PM PST
Nautical Twilight 6:25 AM PST 6:21 PM PST
Astronomical Twilight 5:49 AM PST 6:57 PM PST
Moon 11:56 PM PST (2/1) 9:43 AM PST (2/1)
Length of Visible Light 10h 42m
Length of Day
9h 36m
Waning Gibbous, 69% of the Moon is Illuminated
Feb 1
Waning Gibbous
Feb 3
Last Quarter
Feb 9
New
Feb 17
First Quarter
Feb 25
Full

Hourly Weather History & Observations

Time (PST) Temp. Windchill Dew Point Humidity Pressure Visibility Wind Dir Wind Speed Gust Speed Precip Events Conditions
12:53 AM 48.9 °F - 45.0 °F 86% 30.34 in 10.0 mi Calm Calm - N/A   Overcast
1:53 AM 48.0 °F - 45.0 °F 89% 30.36 in 7.0 mi Calm Calm - N/A   Overcast
2:05 AM 46.4 °F 42.9 °F 44.6 °F 93% 30.36 in 7.0 mi SSE 6.9 mph - N/A   Overcast
2:38 AM 48.2 °F - 44.6 °F 87% 30.37 in 10.0 mi Calm Calm - N/A   Overcast
2:53 AM 48.0 °F - 44.1 °F 86% 30.37 in 10.0 mi Calm Calm - N/A   Overcast
3:53 AM 46.9 °F - 44.1 °F 90% 30.37 in 10.0 mi Calm Calm - N/A   Overcast
4:24 AM 46.4 °F - 44.6 °F 93% 30.38 in 10.0 mi Calm Calm - N/A   Overcast
4:32 AM 48.2 °F - 44.6 °F 87% 30.38 in 10.0 mi Calm Calm - N/A   Overcast
4:39 AM 46.4 °F - 44.6 °F 93% 30.38 in 10.0 mi Calm Calm - N/A   Overcast
4:53 AM 46.9 °F - 44.1 °F 90% 30.38 in 10.0 mi SE 3.5 mph - N/A   Mostly Cloudy
5:29 AM 46.4 °F - 42.8 °F 87% 30.38 in 10.0 mi Calm Calm - N/A   Overcast
5:53 AM 46.4 °F - 42.8 °F 87% 30.38 in 10.0 mi Calm Calm - N/A   Mostly Cloudy
6:53 AM 46.4 °F 44.3 °F 42.8 °F 87% 30.38 in 10.0 mi NE 4.6 mph - N/A   Overcast
7:53 AM 46.9 °F - 42.1 °F 83% 30.38 in 10.0 mi Calm Calm - N/A   Mostly Cloudy
8:46 AM 46.4 °F - 42.8 °F 87% 30.38 in 5.0 mi Calm Calm - N/A   Overcast
8:53 AM 46.0 °F - 43.0 °F 89% 30.38 in 5.0 mi Calm Calm - N/A   Overcast
9:53 AM 48.0 °F - 43.0 °F 83% 30.39 in 5.0 mi North 3.5 mph - N/A   Overcast
10:44 AM 48.2 °F - 42.8 °F 82% 30.41 in 7.0 mi Calm Calm - N/A   Mostly Cloudy
10:53 AM 48.9 °F - 43.0 °F 80% 30.41 in 7.0 mi Calm Calm - N/A   Mostly Cloudy
11:53 AM 48.9 °F - 43.0 °F 80% 30.41 in 10.0 mi NE 3.5 mph - N/A   Overcast
12:53 PM 48.2 °F - 42.8 °F 82% 30.40 in 10.0 mi WNW 3.5 mph - N/A   Overcast
1:53 PM 51.1 °F - 42.1 °F 71% 30.39 in 10.0 mi Variable 3.5 mph - N/A   Scattered Clouds
2:53 PM 51.1 °F - 42.1 °F 71% 30.38 in 10.0 mi WNW 5.8 mph - N/A   Scattered Clouds
3:53 PM 50.0 °F - 42.1 °F 74% 30.37 in 10.0 mi NW 4.6 mph - N/A   Scattered Clouds
4:53 PM 50.0 °F - 42.1 °F 74% 30.37 in 10.0 mi NW 4.6 mph - N/A   Partly Cloudy
5:53 PM 48.9 °F - 41.0 °F 74% 30.37 in 10.0 mi NNW 4.6 mph - N/A   Clear
6:53 PM 48.0 °F - 42.1 °F 80% 30.38 in 10.0 mi Calm Calm - N/A   Mostly Cloudy
7:53 PM 48.0 °F - 41.0 °F 77% 30.39 in 10.0 mi North 3.5 mph - N/A   Mostly Cloudy
8:53 PM 46.9 °F - 39.9 °F 77% 30.39 in 10.0 mi North 3.5 mph - N/A   Mostly Cloudy
9:22 PM 46.4 °F 45.2 °F 39.2 °F 76% 30.40 in 10.0 mi NNE 3.5 mph - N/A   Scattered Clouds
9:53 PM 45.0 °F 42.6 °F 39.9 °F 82% 30.39 in 10.0 mi North 4.6 mph - N/A   Scattered Clouds
10:53 PM 44.1 °F - 39.9 °F 85% 30.39 in 9.0 mi Calm Calm - N/A   Partly Cloudy
11:21 PM 44.6 °F - 39.2 °F 81% 30.39 in 5.0 mi Calm Calm - N/A   Haze
11:53 PM 45.0 °F 42.6 °F 39.9 °F 82% 30.38 in 5.0 mi North 4.6 mph - N/A   Haze